User: anonymous   Login
Location: Unspecified
(0.0000°N, 0.0000°E)
Time: 18:46:32
(UTC+00:00)
Language:

RAX-2 - Orbit

View from above orbital plane
View from above orbital plane
View from above satellite
View from above satellite

Ground track
Ground track

The orbit data is extracted from the following two-line orbital elements,

1 37853U 11061D   17206.24970030 +.00000563 +00000-0 +40269-4 0  9995
2 37853 101.7069 092.0887 0175840 337.0449 022.2971 15.01495488311879
Epoch (UTC): 25 July 2017 05:59:34
Eccentricity: 0.0175840
inclination: 101.7069°
perigee height: 440 km
apogee height: 684 km
right ascension of ascending node: 92.0887°
argument of perigee: 337.0449°
revolutions per day: 15.01495488
mean anomaly at epoch: 22.2971°
orbit number at epoch: 31187

The dashed part of the orbit path shows where the satellite is in the earth's shadow,  

DLR